(6215) Mehdia = 1973 EK = 1977 AA1 = 1982 DC5

Discovered at Bergedorf on 1973-03-07 by L. Kohoutek.
(6215) Mehdia = 1973 EK

Mehdia, equivalent to the Arabic word for "gift", is a region in Morocco with rich natural resources. The forest and the Sidi Boughaba lake are home to thousands of species, including endangered migrating birds from Europe and Sub-Saharan Africa, which prefer to spend the winter in the calm, warm waters of Sidi Boughaba. [Ref: Minor Planet Circ. 103030]

Orbit

Orbit type: Main Belt

Note: WebGL enabled browser required.

epoch2023-09-13.0
epoch JD2460200.5
perihelion date2022-02-06.68584
perihelion JD2459617.18584
argument of perihelion (°)324.05081
ascending node (°)197.31051
inclination (°)1.64418
eccentricity0.0683360
perihelion distance (AU)2.5150436
Tisserand w.r.t. Jupiter3.4
ΔV w.r.t. Earth (km/sec)9.9
semimajor axis (AU)2.6995180
mean anomaly (°)129.62150
mean daily motion (°/day)0.22221560
aphelion distance (AU)2.884
period (years)4.44
P-vector [x]-0.94748092
P-vector [y]0.29971508
P-vector [z]0.11158307
Q-vector [x]-0.31969834
Q-vector [y]-0.87831017
Q-vector [z]-0.35547745
absolute magnitude13.61
phase slope0.15
uncertainty0
referenceMPEC 2024-A48
observations used3043
oppositions28
arc length (days)18411
first opposition used1973
last opposition used2023
residual rms (arc-secs)0.63
perturbers coarse indicatorM-v
perturbers precise indicator003Ek
first observation date used1973-03-07.0
last observation date used2023-08-04.0
computer nameMPCLINUX
JD of orbit computation2456465.512984
perihelion JD uncertainty (days)1.1410E-04
argument of perihelion uncertainty (°)1.1496E-04
ascending node uncertainty (°)1.1207E-04
inclination uncertainty (°)3.9698E-06
eccentricity uncertainty 3.6300E-08
perihelion distance uncertainty (AU)9.8895E-08
Minimum Orbit Intersection Distances (in AU)
for orbit epoch: 2460200.5, reference: E2024-A48
Mercury2.12673
Venus1.7988
Earth1.52194
Mars0.85512
Jupiter2.0878
Saturn6.38148
Uranus15.9319
Neptune27.0007

Observations

3081 total observations over interval: 1973 03 07.89965 – 2023 08 04.205138
These data are available for download (format description).

Date (UT) J2000 RA J2000 Dec Magn Location Ref
1973 03 07.89965 09 38 48.98 +12 06 20.0 17.3   029 – Hamburg-Bergedorf MPC 3750
1973 03 07.91285 09 38 48.36 +12 06 23.6   029 – Hamburg-Bergedorf MPC 3750
1973 03 09.91701 09 37 31.77 +12 14 36.2   029 – Hamburg-Bergedorf MPC 3750
1977 01 13.82264 06 04 05.07 +20 55 25.5 17.5   095 – Crimea-Nauchnyi MPC 4584
1977 01 20.83936 05 58 57.78 +20 58 39.7 17.5   095 – Crimea-Nauchnyi MPC 4586
1982 02 22.02766 10 59 07.08 +04 42 49.6   010 – Caussols MPC 7729
1982 02 27.97367 10 54 13.50 +05 16 03.0   010 – Caussols MPC 7729
1989 11 29.55208 03 52 26.45 +18 22 12.2 16.5   399 – Kushiro MPC 15614
1989 11 29.56667 03 52 25.59 +18 22 06.8   399 – Kushiro MPC 15614
1989 11 29.58299 03 52 24.79 +18 22 05.1   399 – Kushiro MPC 15614
1991 02 11.27274 12 13 52.69 -02 46 14.3   675 – Palomar Mountain MPC 22740
1991 02 11.30382 12 13 52.14 -02 46 09.4   675 – Palomar Mountain MPC 22740
1991 03 12.35035 11 57 19.52 -00 46 28.0   675 – Palomar Mountain MPC 23027
1991 03 12.38264 11 57 17.93 -00 46 16.4   675 – Palomar Mountain MPC 23027
1993 09 19.37251 01 27 40.05 +09 20 36.1 17.3 V 691 – Steward Observatory, Kitt Peak-Spacewatch MPS 80521
1993 09 19.40588 01 27 38.77 +09 20 27.9 17.6 V 691 – Steward Observatory, Kitt Peak-Spacewatch MPS 80521
1993 09 19.43897 01 27 37.49 +09 20 19.9 18.6 V 691 – Steward Observatory, Kitt Peak-Spacewatch MPS 80521
1993 10 09.14861 01 12 55.46 +07 41 41.4 18.1   809 – European Southern Observatory, La Silla MPC 23196
1993 10 09.16181 01 12 54.75 +07 41 36.9   809 – European Southern Observatory, La Silla MPC 23196
1993 10 09.17500 01 12 54.06 +07 41 32.5   809 – European Southern Observatory, La Silla MPC 23196
1993 10 10.30035 01 11 57.76 +07 35 06.5   675 – Palomar Mountain MPC 22880
1993 10 10.33767 01 11 55.88 +07 34 53.9   675 – Palomar Mountain MPC 22880
1993 10 13.29722 01 09 27.54 +07 18 09.1   675 – Palomar Mountain MPC 22880
1993 10 20.15625 01 03 48.62 +06 39 42.3 18.2   809 – European Southern Observatory, La Silla MPC 23072
1993 10 20.16944 01 03 47.97 +06 39 38.2   809 – European Southern Observatory, La Silla MPC 23072
1993 10 20.18264 01 03 47.29 +06 39 33.3   809 – European Southern Observatory, La Silla MPC 23072
1993 10 22.27743 01 02 07.40 +06 28 07.3   809 – European Southern Observatory, La Silla MPC 25311
1993 10 22.29826 01 02 06.24 +06 28 01.3   809 – European Southern Observatory, La Silla MPC 25311
1993 10 22.31910 01 02 05.13 +06 27 56.3   809 – European Southern Observatory, La Silla MPC 25311
1994 12 02.34875 08 48 47.42 +15 33 50.0   691 – Steward Observatory, Kitt Peak-Spacewatch MPC 24474
1994 12 02.37259 08 48 47.67 +15 33 47.7 16.7 V 691 – Steward Observatory, Kitt Peak-Spacewatch MPC 24474
1994 12 02.39645 08 48 47.91 +15 33 45.6   691 – Steward Observatory, Kitt Peak-Spacewatch MPC 24474
1994 12 28.42722 08 44 15.05 +15 33 35.2 17.3 V 691 – Steward Observatory, Kitt Peak-Spacewatch MPC 24654
1994 12 28.45107 08 44 14.22 +15 33 37.6   691 – Steward Observatory, Kitt Peak-Spacewatch MPC 24654
1994 12 28.47585 08 44 13.36 +15 33 39.6   691 – Steward Observatory, Kitt Peak-Spacewatch MPC 24654
1996 05 15.57313 16 17 10.62 -19 29 49.5 16.9 V 566 – Haleakala-NEAT/GEODSS MPC 27195
1996 05 15.59857 16 17 09.20 -19 29 44.9 16.9 V 566 – Haleakala-NEAT/GEODSS MPC 27195
1996 05 15.61637 16 17 08.26 -19 29 42.0 16.9 V 566 – Haleakala-NEAT/GEODSS MPC 27195
1996 06 14.42391 15 51 37.16 -18 09 26.2 19.0 V 566 – Haleakala-NEAT/GEODSS MPC 27381
1996 06 14.42769 15 51 36.91 -18 09 25.2 19.2 V 566 – Haleakala-NEAT/GEODSS MPC 27381
1996 06 14.44786 15 51 36.11 -18 09 23.5 19.6 V 566 – Haleakala-NEAT/GEODSS MPC 27381
1996 06 14.44961 15 51 36.04 -18 09 22.7 19.0 V 566 – Haleakala-NEAT/GEODSS MPC 27381
1996 06 14.46676 15 51 35.29 -18 09 20.5 19.4 V 566 – Haleakala-NEAT/GEODSS MPC 27381
1996 06 14.46858 15 51 35.22 -18 09 20.0 18.8 V 566 – Haleakala-NEAT/GEODSS MPC 27381
1996 06 21.42622 15 47 19.94 -17 56 22.5 19.4 V 566 – Haleakala-NEAT/GEODSS MPC 27381
1996 06 21.44467 15 47 19.29 -17 56 20.3 19.9 V 566 – Haleakala-NEAT/GEODSS MPC 27381
1996 06 21.46588 15 47 18.59 -17 56 18.0 20.1 V 566 – Haleakala-NEAT/GEODSS MPC 27381
1997 08 30.58881 22 44 31.75 -06 17 59.5 17.7 V 566 – Haleakala-NEAT/GEODSS MPC 30560
1997 08 30.59931 22 44 31.21 -06 18 03.0 17.7 V 566 – Haleakala-NEAT/GEODSS MPC 30560
1997 08 30.60954 22 44 30.74 -06 18 06.4 17.8 V 566 – Haleakala-NEAT/GEODSS MPC 30560
1998 12 01.70469 04 54 47.09 +20 27 33.3   327 – Peking Observatory, Xinglong Station MPS 3754
1998 12 01.71333 04 54 46.54 +20 27 31.0 17.2   327 – Peking Observatory, Xinglong Station MPS 3754
1998 12 01.72140 04 54 46.08 +20 27 30.7   327 – Peking Observatory, Xinglong Station MPS 3754
1998 12 15.30078 04 41 29.48 +20 00 29.0 17.2   704 – Lincoln Laboratory ETS, New Mexico MPS 3535
1998 12 15.31563 04 41 28.65 +20 00 26.4 17.1   704 – Lincoln Laboratory ETS, New Mexico MPS 3535
1998 12 15.33048 04 41 27.78 +20 00 25.5   704 – Lincoln Laboratory ETS, New Mexico MPS 3535
1998 12 15.34528 04 41 26.89 +20 00 23.6   704 – Lincoln Laboratory ETS, New Mexico MPS 3535
1998 12 15.36002 04 41 26.04 +20 00 22.2 17.5   704 – Lincoln Laboratory ETS, New Mexico MPS 3535
1999 01 05.16668 04 25 39.83 +19 29 36.2 17.8 R 699 – Lowell Observatory-LONEOS MPS 58090
1999 01 05.18833 04 25 39.16 +19 29 34.9   699 – Lowell Observatory-LONEOS MPS 58090
1999 01 05.20874 04 25 38.40 +19 29 34.4   699 – Lowell Observatory-LONEOS MPS 58090
1999 02 02.23215 04 22 25.77 +19 34 28.1 18.0 R 699 – Lowell Observatory-LONEOS MPS 59243
1999 02 02.25759 04 22 26.20 +19 34 30.5   699 – Lowell Observatory-LONEOS MPS 59243
1999 02 02.28304 04 22 26.60 +19 34 30.4   699 – Lowell Observatory-LONEOS MPS 59243
2000 01 11.50219 12 54 24.87 -06 40 48.6 17.9 R 699 – Lowell Observatory-LONEOS MPS 9627
2000 01 11.52257 12 54 25.85 -06 40 56.0   699 – Lowell Observatory-LONEOS MPS 9627
2000 01 11.54297 12 54 26.90 -06 41 01.2   699 – Lowell Observatory-LONEOS MPS 9627
2000 03 04.35181 13 07 14.14 -07 42 19.0 17.0 R 703 – Catalina Sky Survey MPS 11606
2000 03 04.36347 13 07 13.83 -07 42 16.8 16.9 R 703 – Catalina Sky Survey MPS 11606
2000 03 04.37516 13 07 13.51 -07 42 14.6 16.9 R 703 – Catalina Sky Survey MPS 11606
2000 03 04.38683 13 07 13.19 -07 42 12.4 16.9 R 703 – Catalina Sky Survey MPS 11606
2000 03 09.31151 13 04 50.41 -07 24 45.9 18.6   704 – Lincoln Laboratory ETS, New Mexico MPS 11606
2000 03 09.32481 13 04 49.97 -07 24 41.7 18.9   704 – Lincoln Laboratory ETS, New Mexico MPS 11606
2000 03 09.33886 13 04 49.49 -07 24 38.8 18.8   704 – Lincoln Laboratory ETS, New Mexico MPS 11606
2000 03 09.35295 13 04 49.04 -07 24 35.3 18.8   704 – Lincoln Laboratory ETS, New Mexico MPS 11606
2000 03 09.36677 13 04 48.49 -07 24 32.0 18.9   704 – Lincoln Laboratory ETS, New Mexico MPS 11606
2000 03 10.45790 13 04 12.32 -07 20 10.4 17.4   704 – Lincoln Laboratory ETS, New Mexico MPS 11606
2000 03 10.48294 13 04 11.30 -07 20 04.4 18.3   704 – Lincoln Laboratory ETS, New Mexico MPS 11606
2000 03 10.49571 13 04 10.83 -07 20 01.7 18.8   704 – Lincoln Laboratory ETS, New Mexico MPS 11606
2000 03 10.50822 13 04 10.36 -07 19 58.8 18.5   704 – Lincoln Laboratory ETS, New Mexico MPS 11606
2000 03 29.24612 12 50 46.26 -05 43 36.6 17.1 V 691 – Steward Observatory, Kitt Peak-Spacewatch MPS 13298
2000 03 29.26726 12 50 45.19 -05 43 29.3 16.7 V 691 – Steward Observatory, Kitt Peak-Spacewatch MPS 13298
2000 03 29.28821 12 50 44.13 -05 43 21.8 16.6 V 691 – Steward Observatory, Kitt Peak-Spacewatch MPS 13298
2000 04 05.15068 12 45 06.193 -05 02 30.34 15.15 J I02 – Cerro Tololo Observatory, La Serena--2MASS MPS 80521
2000 04 05.25616 12 45 01.06 -05 01 58.7 16.7 V 691 – Steward Observatory, Kitt Peak-Spacewatch MPS 13298
2000 04 05.26900 12 45 00.39 -05 01 54.1 16.0 R 699 – Lowell Observatory-LONEOS MPS 16257
